COSMOS 1057

Satellite information

Favourite Embed

Satellite Type and Status

PAYLOADIN ORBIT

Key statistics

Satellite COSMOS 1057 at a glance.

Uptime

17176

Days in orbit

Revolutions

≈ 12.4

Per day

Orbit

LEO

Low Earth Orbit

Inclination

74.0

Latest

Satellite identification and parameters

Extended collection of information and parameters for COSMOS 1057.

Object identification

Identified? True

Debris? False

Object name: COSMOS 1057

International designator: 1978-109G

Object number (NORAD): 11134

Object ID (CCSDS): 11134

Country: COMMONWEALTH OF INDEPENDENT STATES (CIS)

Current information (Y/N): Y

RCS size: MEDIUM

Orbital parameters

Period: 115.93 minutes

Inclination: 74.0135 deg

SMA: 7875.733 km

Apoapsis: 1514.792 km

Periapsis: 1480.404 km

RAAN: 172.6309 deg

Eccentricy: 0.00218319

Argument of periapsis: 22.0893 deg

Mean anomaly: 44.3407 deg

Mean motion: 12.42127791 rev/day

Mean motion (dot): 0.00000003 rev/day2

B* drag term: 0.00013535732 1/REarth

Two-line elements (TLE)

Creation date: Dec. 14, 2025, 3:07 a.m.

Reference frame: TEME

Reference center: EARTH

Epoch: Dec. 13, 2025, 3:43 p.m. UTC

TLE line 0: 0 COSMOS 1057

TLE line 1: 1 11134U 78109G 25347.65494774 .00000003 00000-0 13536-3 0 9996

TLE line 2: 2 11134 74.0135 172.6309 0021832 22.0893 44.3407 12.42127791132206

Live tracking on map

Real-time ground track for satellite COSMOS 1057.

In-orbit conjunctions

A list of the most updated potential collisions computed for object COSMOS 1057.

Target Orbit TCA Probability of collision Miss distance Type
DELTA 1 DEB SSO 2025-07-14 21:34:15 0.0003464643 49.0 (m) DEBRIS
COSMOS 736 LEO 2024-06-06 17:10:46 0.02241838 51.0 (m) PAYLOAD

Associated space launch

Military communications satellites

COSMOS 1057 was lifted into orbit during the mission ‘Kosmos-3M | Strela-1M 161-168’, on board a Kosmos-3M space rocket.

The launch took place on Dec. 5, 1978, 6:12 p.m. from 132/2.

For more information about the launch, click the button.

Launch to space Kosmos-3M | Strela-1M 161-168
Kosmos-3M | Strela-1M 161-168

Agency: N/A

Status: Launch Successful

Launch date: Dec. 5, 1978, 6:12 p.m. UTC

Rocket: Kosmos-3M

Launch pad: 132/2

Location: Plesetsk Cosmodrome, Russian Federation

...

Latest news about this satellite

There are no fresh news available about this satellite. Check back as we update our databases every day.


Newsletter sign-up

Weekly statistics, charts and insights to help you stay on top of the space industry.